Zurück zum Katalog

STARLINK-33810

AktivKommunikationVLEO
NORAD 63660·PAYLOAD·🇺🇸 United States

Gestartet Apr 25, 2025 von Cape Canaveral Space Force Station

Loading…

Nächste Überflüge (nächste 24 Stunden)

TLE

AktuellSource: CelesTrak SupGP

Epoche: Sep 14, 2026, 22:57 UTC

1 63660C 25083AC  26257.95673611  .00000726  00000+0  26294-4 0  2577
2 63660  43.0023  16.0734 0001558 269.3577 162.7297 15.27575921    13

Verfolge STARLINK-33810 in Echtzeit mit AllMySat

Download on the App Store